Location: Unspecified
(41.1637°N, 24.2901°E)
Time: 17:47:27
(UTC+02:00)

ISS - Pass Details

Date: 17 May 2024
Orbit: 410 x 414 km, 51.6° (Epoch: 18 May)

Event Time Altitude Azimuth Distance (km) Brightness Sun altitude
Rises 22:41:44 0° 309° (NW) 2,349 1.1 -25.2°
Reaches altitude 10° 22:44:22 10° 331° (NNW) 1,485 0.1 -25.4°
Maximum altitude 22:46:37 17° 13° (NNE) 1,139 -1.0 -25.6°
Enters shadow 22:47:21 16° 30° (NNE) 1,179 -1.1 -25.6°
